Regional Weather Roundup
Issued by NWS Little Rock, AR

Home | Current Version | Previous Version | Graphics & Text | Print | Product List | Glossary On
Versions: 1 2 3 4 5 6 7 8 9 10 11 12 13 14 15 16 17 18 19 20 21 22 23 24 25 26 27 28 29 30 31 32 33 34 35 36 37 38 39 40 41 42 43 44 45 46 47 48 49 50
000
ASUS44 KLZK 290705
RWRLZK

WEATHER ROUNDUP FOR ARKANSAS
NATIONAL WEATHER SERVICE LITTLE ROCK AR
200 AM CDT SUN MAR 29 2015

NOTE: "FAIR" INDICATES FEW OR NO CLOUDS BELOW 12,000 FEET WITH NO
SIGNIFICANT WEATHER AND/OR OBSTRUCTIONS TO VISIBILITY.

ARZ001-003-010-029-290800-
NORTHWEST ARKANSAS

CITY           SKY/WX    TMP DP  RH WIND       PRES   REMARKS
FAYETTEVILLE   CLEAR     42  35  76 SE7       30.13F
FORT SMITH     CLEAR     41  33  73 E15       30.18F
HARRISON       CLEAR     34  30  85 SE15      30.17F WCI  24
BENTONVILLE    CLEAR     41  32  70 SE10      30.12F
ROGERS         CLEAR     40  32  73 SE10      30.12F
SILOAM SPGS    CLEAR     43  30  61 SE13      30.12S
HIGHFILL       CLEAR     42  33  70 SE12      30.11F
$$

ARZ004-005-016-290800-
NORTH CENTRAL ARKANSAS

CITY           SKY/WX    TMP DP  RH WIND       PRES   REMARKS
BATESVILLE     CLEAR     32  28  86 CALM      30.28S
FLIPPIN        CLEAR     34  27  75 SE5       30.23F WCI  30
MTN HOME       CLEAR     33  30  88 SE7       30.22F WCI  27
$$

ARZ040-041-290800-
WEST CENTRAL ARKANSAS

CITY           SKY/WX    TMP DP  RH WIND       PRES   REMARKS
MENA           FAIR      43  36  75 E7        30.19S
MOUNT IDA      CLEAR     41  32  70 E3        30.19S
$$

ARZ009-017-025-026-028-290800-
NORTHEAST ARKANSAS

CITY           SKY/WX    TMP DP  RH WIND       PRES   REMARKS
CORNING          N/A     34  32  93 SE5       30.31F WCI  30
JONESBORO      CLEAR     31  30  96 NE6       30.30F WCI  25
NEWPORT        CLEAR     35  33  92 E6        30.30F WCI  30
BLYTHEVILLE    CLEAR     31  29  92 E6        30.31F WCI  25
$$

ARZ022-023-033-042-044-290800-
CENTRAL ARKANSAS

CITY           SKY/WX    TMP DP  RH WIND       PRES   REMARKS
LITTLE ROCK    CLEAR     39  33  79 E6        30.27F
N LITTLE ROCK    N/A     37  36  97 E6        30.27F
JACKSONVILLE   CLEAR     35  33  92 E3        30.26F
SEARCY         CLEAR     35  32  88 NE3       30.30F
HOT SPRINGS    CLEAR     40  32  73 E8        30.24F
RUSSELLVILLE   CLEAR     37  33  85 VRB3      30.25F
CLINTON        FAIR      32  32 100 CALM      30.29S FOG
$$

ARZ036-290800-
EAST ARKANSAS

CITY           SKY/WX    TMP DP  RH WIND       PRES   REMARKS
WEST MEMPHIS   CLEAR     35  29  78 E5        30.29F WCI  31
$$

ARZ050-053-066-070-073-290800-
SOUTHWEST ARKANSAS

CITY           SKY/WX    TMP DP  RH WIND       PRES   REMARKS
ARKADELPHIA    FAIR      41  36  82 NE5       30.25F
CAMDEN         CLEAR     41  32  70 CALM      30.23F
TEXARKANA      CLEAR     45  35  68 E7        30.18S
EL DORADO      CLEAR     43  34  70 E8        30.21F
DE QUEEN       CLEAR     45  35  68 E8        30.17S
$$

ARZ056-057-069-290800-
SOUTHEAST ARKANSAS

CITY           SKY/WX    TMP DP  RH WIND       PRES   REMARKS
PINE BLUFF     CLEAR     39  35  86 E7        30.27S
STUTTGART      CLEAR     39  30  70 E7        30.27F
MONTICELLO     CLEAR     40  33  76 E7        30.25F

$$





USA.gov is the U.S. government's official web portal to all federal, state and local government web resources and services.